When you browse on this site, cookies collect data to enhance your experience and personalize the content and advertising you see.
Visit our Privacy Policy to learn more. By continuing to use the site, you agree to this use of cookies and data.
  • In Hungary
  • List of Countries
  • For 7 days
  • Water Temperature
  • Weather Map
  • News
  • Weather Widgets
  • user-avatar
    Login

    Hourly Weather Wigston Magna

    Today, 22 August, Thursday

    Time Temperature Precipitation Wind Pressure Humidity
    00:00 +14°C° 0 mm 4 mps 759 mmHg 82%
    01:00 +14°C° 0 mm 4 mps 759 mmHg 84%
    02:00 +13°C° 0 mm 5 mps 758 mmHg 85%
    03:00 +13°C° 0 mm 5 mps 758 mmHg 87%
    04:00 +13°C° 0 mm 5 mps 758 mmHg 87%
    05:00 +13°C° 0 mm 5 mps 758 mmHg 87%
    06:00 +14°C° 0 mm 5 mps 758 mmHg 85%
    07:00 +15°C° 0 mm 5 mps 758 mmHg 83%
    08:00 +16°C° 0 mm 6 mps 758 mmHg 81%
    09:00 +17°C° 0 mm 6 mps 758 mmHg 79%
    10:00 +19°C° 0 mm 6 mps 758 mmHg 77%
    11:00 +20°C° 0 mm 6 mps 758 mmHg 75%
    12:00 +21°C° 0 mm 6 mps 759 mmHg 72%
    13:00 +22°C° 0 mm 6 mps 759 mmHg 70%
    14:00 +22°C° 0 mm 7 mps 758 mmHg 68%
    15:00 +22°C° 0 mm 7 mps 758 mmHg 66%
    16:00 +22°C° 0 mm 7 mps 758 mmHg 69%
    17:00 +21°C° 0 mm 6 mps 758 mmHg 72%
    18:00 +20°C° 0 mm 6 mps 758 mmHg 75%
    19:00 +19°C° 0 mm 5 mps 759 mmHg 79%
    20:00 +18°C° 0 mm 4 mps 759 mmHg 82%
    21:00 +18°C° 0 mm 4 mps 760 mmHg 85%
    22:00 +17°C° 0 mm 3 mps 760 mmHg 87%
    23:00 +17°C° 0 mm 3 mps 760 mmHg 90%

    Tomorrow, 23 August, Friday

    Time Temperature Precipitation Wind Pressure Humidity
    00:00 +16°C° 0 mm 3 mps 760 mmHg 92%
    01:00 +16°C° 0 mm 3 mps 760 mmHg 93%
    02:00 +16°C° 0 mm 3 mps 760 mmHg 94%
    03:00 +14°C° 0 mm 3 mps 760 mmHg 94%
    04:00 +14°C° 0 mm 3 mps 760 mmHg 94%
    05:00 +15°C° 0 mm 2 mps 760 mmHg 94%
    06:00 +16°C° 0 mm 2 mps 760 mmHg 94%
    07:00 +17°C° 0 mm 2 mps 760 mmHg 88%
    08:00 +18°C° 0 mm 2 mps 760 mmHg 83%
    09:00 +20°C° 0 mm 2 mps 760 mmHg 77%
    10:00 +21°C° 0 mm 2 mps 760 mmHg 72%
    11:00 +23°C° 0 mm 2 mps 760 mmHg 67%
    12:00 +24°C° 0 mm 2 mps 760 mmHg 62%
    13:00 +25°C° 0 mm 2 mps 759 mmHg 60%
    14:00 +25°C° 0 mm 3 mps 759 mmHg 59%
    15:00 +26°C° 0 mm 3 mps 759 mmHg 57%
    16:00 +25°C° 0 mm 2 mps 759 mmHg 61%
    17:00 +24°C° 0 mm 2 mps 758 mmHg 65%
    18:00 +24°C° 0 mm 2 mps 758 mmHg 68%
    19:00 +23°C° 0 mm 2 mps 758 mmHg 71%
    20:00 +20°C° 0 mm 2 mps 758 mmHg 74%
    21:00 +19°C° 0 mm 2 mps 758 mmHg 77%
    22:00 +19°C° 0 mm 2 mps 758 mmHg 79%
    23:00 +18°C° 0 mm 2 mps 758 mmHg 80%

    Day after tomorrow, 24 August, Saturday

    Time Temperature Precipitation Wind Pressure Humidity
    00:00 +17°C° 0 mm 2 mps 757 mmHg 82%
    01:00 +17°C° 0 mm 2 mps 757 mmHg 82%
    02:00 +16°C° 0 mm 2 mps 757 mmHg 82%
    03:00 +16°C° 0 mm 1 mps 757 mmHg 83%
    04:00 +16°C° 0 mm 1 mps 757 mmHg 83%
    05:00 +16°C° 0 mm 1 mps 757 mmHg 83%
    06:00 +15°C° 0 mm 1 mps 757 mmHg 83%
    07:00 +17°C° 0 mm 2 mps 757 mmHg 74%
    08:00 +19°C° 0 mm 2 mps 757 mmHg 65%
    09:00 +21°C° 0 mm 2 mps 757 mmHg 57%
    10:00 +23°C° 0 mm 2 mps 756 mmHg 53%
    11:00 +25°C° 0 mm 3 mps 756 mmHg 49%
    12:00 +26°C° 0 mm 3 mps 756 mmHg 45%
    13:00 +27°C° 0 mm 3 mps 756 mmHg 45%
    14:00 +27°C° 0 mm 3 mps 756 mmHg 44%
    15:00 +28°C° 0 mm 3 mps 755 mmHg 43%
    16:00 +27°C° 0 mm 2 mps 755 mmHg 47%
    17:00 +26°C° 0 mm 2 mps 755 mmHg 52%
    18:00 +25°C° 0 mm 1 mps 755 mmHg 56%
    19:00 +24°C° 0 mm 1 mps 755 mmHg 59%
    20:00 +21°C° 0 mm 2 mps 755 mmHg 63%
    21:00 +20°C° 0 mm 2 mps 755 mmHg 66%
    22:00 +19°C° 0 mm 2 mps 755 mmHg 69%
    23:00 +19°C° 0 mm 2 mps 755 mmHg 72%

    25 August, Sunday

    Time Temperature Precipitation Wind Pressure Humidity
    00:00 +18°C° 0 mm 2 mps 755 mmHg 75%
    01:00 +18°C° 0 mm 2 mps 755 mmHg 75%
    02:00 +18°C° 0 mm 2 mps 755 mmHg 75%
    03:00 +17°C° 0 mm 2 mps 755 mmHg 75%
    04:00 +17°C° 0 mm 2 mps 755 mmHg 76%
    05:00 +17°C° 0 mm 2 mps 755 mmHg 77%
    06:00 +17°C° 0 mm 2 mps 755 mmHg 77%
    07:00 +19°C° 0 mm 2 mps 755 mmHg 72%
    08:00 +21°C° 0 mm 2 mps 756 mmHg 67%
    09:00 +24°C° 0 mm 2 mps 756 mmHg 62%
    10:00 +25°C° 0 mm 2 mps 756 mmHg 57%
    11:00 +27°C° 0 mm 3 mps 756 mmHg 53%
    12:00 +28°C° 0 mm 3 mps 756 mmHg 48%
    13:00 +29°C° 0 mm 2 mps 756 mmHg 46%
    14:00 +29°C° 0 mm 2 mps 756 mmHg 43%
    15:00 +30°C° 0 mm 2 mps 756 mmHg 40%
    16:00 +29°C° 0 mm 2 mps 756 mmHg 46%
    17:00 +28°C° 0 mm 2 mps 756 mmHg 51%
    18:00 +27°C° 0 mm 2 mps 756 mmHg 56%
    19:00 +25°C° 0 mm 2 mps 756 mmHg 61%
    20:00 +22°C° 0 mm 3 mps 756 mmHg 66%
    21:00 +21°C° 0 mm 3 mps 757 mmHg 70%
    22:00 +20°C° 0 mm 2 mps 757 mmHg 72%
    23:00 +20°C° 0 mm 2 mps 757 mmHg 73%

    26 August, Monday

    Time Temperature Precipitation Wind Pressure Humidity
    00:00 +19°C° 0 mm 2 mps 757 mmHg 74%
    01:00 +19°C° 0 mm 2 mps 756 mmHg 74%
    02:00 +19°C° 0 mm 2 mps 756 mmHg 73%
    03:00 +18°C° 0 mm 2 mps 756 mmHg 73%
    04:00 +19°C° 0 mm 1 mps 756 mmHg 73%
    05:00 +19°C° 0 mm 1 mps 756 mmHg 73%
    06:00 +19°C° 0 mm 1 mps 757 mmHg 74%
    07:00 +21°C° 0 mm 1 mps 757 mmHg 68%
    08:00 +23°C° 0 mm 2 mps 757 mmHg 62%
    09:00 +25°C° 0 mm 2 mps 757 mmHg 57%
    10:00 +26°C° 0 mm 2 mps 757 mmHg 52%
    11:00 +27°C° 0 mm 3 mps 756 mmHg 48%
    12:00 +28°C° 0 mm 3 mps 756 mmHg 43%
    13:00 +29°C° 0 mm 3 mps 756 mmHg 42%
    14:00 +29°C° 0 mm 3 mps 756 mmHg 40%
    15:00 +30°C° 0 mm 2 mps 755 mmHg 39%
    16:00 +29°C° 0 mm 2 mps 755 mmHg 45%
    17:00 +27°C° 0 mm 2 mps 755 mmHg 50%
    18:00 +26°C° 0 mm 2 mps 755 mmHg 56%
    19:00 +25°C° 0 mm 2 mps 755 mmHg 63%
    20:00 +23°C° 0 mm 2 mps 755 mmHg 70%
    21:00 +21°C° 0 mm 3 mps 755 mmHg 77%
    22:00 +20°C° 0 mm 2 mps 755 mmHg 79%
    23:00 +19°C° 0 mm 2 mps 755 mmHg 82%

    27 August, Tuesday

    Time Temperature Precipitation Wind Pressure Humidity
    00:00 +19°C° 0 mm 2 mps 755 mmHg 84%
    01:00 +18°C° 0 mm 2 mps 755 mmHg 85%
    02:00 +18°C° 0 mm 2 mps 755 mmHg 87%
    03:00 +17°C° 0 mm 2 mps 754 mmHg 88%
    04:00 +17°C° 0 mm 2 mps 754 mmHg 89%
    05:00 +17°C° 0 mm 2 mps 754 mmHg 90%
    06:00 +16°C° 0 mm 2 mps 754 mmHg 92%
    07:00 +18°C° 0 mm 2 mps 754 mmHg 85%
    08:00 +20°C° 0 mm 3 mps 754 mmHg 79%
    09:00 +22°C° 0 mm 3 mps 754 mmHg 72%
    10:00 +24°C° 0 mm 3 mps 754 mmHg 64%
    11:00 +26°C° 0 mm 3 mps 754 mmHg 57%
    12:00 +27°C° 0 mm 3 mps 754 mmHg 49%
    13:00 +28°C° 0 mm 3 mps 753 mmHg 47%
    14:00 +28°C° 0 mm 3 mps 753 mmHg 46%
    15:00 +29°C° 0 mm 3 mps 753 mmHg 44%
    16:00 +27°C° 0 mm 3 mps 753 mmHg 52%
    17:00 +26°C° 0 mm 3 mps 752 mmHg 60%
    18:00 +25°C° 0 mm 3 mps 752 mmHg 68%
    19:00 +24°C° 0 mm 3 mps 752 mmHg 73%
    20:00 +21°C° 0 mm 3 mps 753 mmHg 79%
    21:00 +20°C° 0 mm 3 mps 753 mmHg 85%
    22:00 +20°C° 0 mm 3 mps 753 mmHg 86%
    23:00 +19°C° 0 mm 2 mps 752 mmHg 88%
    Show more